Weather History for KANW - November, 2013

Change the Weather History Date:

Wednesday, November 13, 2013

  Actual Average Record
Temperature  
Mean Temperature 48 °F -  
Max Temperature 61 °F 46 °F 75 °F (1999)
Min Temperature 34 °F 25 °F -1 °F (2014)
Degree Days  
Heating Degree Days 18    
Moisture  
Dew Point 31 °F    
Average Humidity 63    
Maximum Humidity 85    
Minimum Humidity 30    
Precipitation  
Precipitation 0.04 in - - ()
Sea Level Pressure  
Sea Level Pressure 30.06 in    
Wind  
Wind Speed 11 mph (SW)    
Max Wind Speed 17 mph    
Max Gust Speed 23 mph    
Visibility 10 miles    
Events      
Averages and records for this station are not official NWS values.
T = Trace of Precipitation, MM = Missing Value Source: NWS Daily Summary

Daily Weather History Graph

Daily Weather History Graph

Search for Another Location

Airport or City:

Trip Planner

Search our weather history database for the weather conditions in past years. The results will help you decide how hot, cold, wet, or windy it might be!

Date:

Astronomy

Nov. 13, 2013 Rise Set
Actual Time 7:29 AM CST 5:18 PM CST
Civil Twilight 6:58 AM CST 5:49 PM CST
Nautical Twilight 6:24 AM CST 6:23 PM CST
Astronomical Twilight 5:51 AM CST 6:56 PM CST
Moon 3:11 PM CST (11/13) 3:19 AM CST (11/13)
Length of Visible Light 10h 50m
Length of Day
9h 49m
Waxing Gibbous, 85% of the Moon is Illuminated
Nov 13
Waxing Gibbous
Nov 17
Full
Nov 25
Last Quarter
Dec 2
New
Dec 9
First Quarter

Hourly Weather History & Observations

Time (CST) Temp. Windchill Dew Point Humidity Pressure Visibility Wind Dir Wind Speed Gust Speed Precip Events Conditions
12:15 AM 34.7 °F 25.9 °F 29.8 °F 82% 30.29 in 10.0 mi SSW 12.7 mph - N/A   Clear
12:35 AM 34.7 °F 25.1 °F 30.0 °F 83% 30.28 in 10.0 mi SSW 15.0 mph - N/A   Clear
12:55 AM 35.1 °F 24.8 °F 30.2 °F 82% 30.26 in 10.0 mi SSW 17.3 mph - N/A   Clear
1:15 AM 34.7 °F 24.7 °F 29.8 °F 82% 30.26 in 10.0 mi SSW 16.1 mph - N/A   Clear
1:35 AM 34.7 °F 24.7 °F 30.0 °F 83% 30.24 in 10.0 mi SSW 16.1 mph - N/A   Clear
1:55 AM 35.4 °F 25.3 °F 30.6 °F 82% 30.24 in 10.0 mi SSW 17.3 mph 23.0 mph N/A   Clear
2:15 AM 35.8 °F 26.1 °F 30.2 °F 80% 30.23 in 10.0 mi SSW 16.1 mph - N/A   Clear
2:35 AM 35.6 °F 25.5 °F 30.2 °F 81% 30.22 in 10.0 mi SSW 17.3 mph 23.0 mph N/A   Clear
2:55 AM 35.1 °F 25.5 °F 30.2 °F 82% 30.22 in 10.0 mi SSW 15.0 mph - N/A   Clear
3:15 AM 34.9 °F 25.3 °F 30.2 °F 83% 30.21 in 10.0 mi SSW 15.0 mph - N/A   Clear
3:35 AM 35.2 °F 26.2 °F 30.4 °F 82% 30.20 in 10.0 mi SSW 13.8 mph 20.7 mph N/A   Clear
3:55 AM 35.4 °F 26.0 °F 30.7 °F 83% 30.19 in 10.0 mi SSW 15.0 mph - N/A   Clear
4:15 AM 35.1 °F 25.9 °F 30.2 °F 82% 30.18 in 10.0 mi SSW 13.8 mph 18.4 mph N/A   Clear
4:35 AM 35.2 °F 26.6 °F 30.6 °F 83% 30.17 in 10.0 mi SSW 12.7 mph - N/A   Clear
4:55 AM 35.1 °F 25.9 °F 30.2 °F 82% 30.16 in 10.0 mi SSW 13.8 mph 20.7 mph N/A   Clear
5:15 AM 34.9 °F 25.3 °F 30.2 °F 83% 30.15 in 10.0 mi SSW 15.0 mph - N/A   Clear
5:35 AM 35.1 °F 26.4 °F 30.2 °F 82% 30.16 in 10.0 mi SSW 12.7 mph - N/A   Clear
5:55 AM 34.3 °F 25.9 °F 29.8 °F 84% 30.15 in 10.0 mi SSW 11.5 mph - N/A   Clear
6:15 AM 34.2 °F 25.7 °F 30.0 °F 85% 30.15 in 10.0 mi SSW 11.5 mph - N/A   Clear
6:35 AM 34.0 °F 24.6 °F 30.0 °F 85% 30.13 in 10.0 mi SSW 13.8 mph - N/A   Clear
6:55 AM 34.3 °F 25.0 °F 29.8 °F 84% 30.12 in 10.0 mi SSW 13.8 mph - N/A   Clear
7:15 AM 34.7 °F 25.5 °F 29.3 °F 81% 30.12 in 10.0 mi SW 13.8 mph - N/A   Clear
7:35 AM 34.3 °F 25.5 °F 29.3 °F 82% 30.11 in 10.0 mi SW 12.7 mph - N/A   Clear
7:55 AM 35.4 °F 26.8 °F 29.8 °F 80% 30.11 in 10.0 mi SW 12.7 mph - N/A   Clear
8:15 AM 36.0 °F 29.0 °F 30.0 °F 79% 30.11 in 10.0 mi SW 9.2 mph - N/A   Clear
8:35 AM 38.3 °F 31.9 °F 30.6 °F 74% 30.10 in 10.0 mi SSW 9.2 mph - N/A   Clear
8:55 AM 40.3 °F 33.0 °F 30.9 °F 69% 30.10 in 10.0 mi SSW 12.7 mph - N/A   Clear
9:15 AM 42.3 °F 35.9 °F 31.3 °F 65% 30.10 in 10.0 mi SW 11.5 mph - N/A   Clear
9:35 AM - - - N/A% 30.10 in - SW 12.7 mph - N/A   Clear
9:55 AM 45.5 °F 39.6 °F 31.8 °F 59% 30.09 in 10.0 mi SSW 12.7 mph - N/A   Clear
10:15 AM 47.3 °F - 32.0 °F 55% 30.09 in 10.0 mi SW 11.5 mph - N/A   Clear
10:35 AM 49.1 °F - 32.0 °F 52% 30.07 in - SW 11.5 mph - N/A   Clear
10:55 AM 52.7 °F - 32.0 °F 45% 30.07 in 10.0 mi SW 10.4 mph - N/A   Clear
11:15 AM 56.3 °F - 34.0 °F 43% 30.06 in 10.0 mi SW 10.4 mph - N/A   Clear
11:35 AM - - - N/A% - - North - - N/A   Unknown
11:55 AM 55.9 °F - 32.0 °F 40% 30.05 in 10.0 mi WSW 10.4 mph - 0.04 in   Clear
12:15 PM 56.7 °F - 32.0 °F 39% 30.04 in 10.0 mi West 8.1 mph - N/A   Clear
12:35 PM 57.6 °F - 32.0 °F 38% 30.03 in 10.0 mi West 6.9 mph - N/A   Clear
12:55 PM 58.6 °F - 32.0 °F 37% 30.02 in 10.0 mi West 5.8 mph - N/A   Clear
1:15 PM 59.2 °F - 31.3 °F 35% 30.01 in 10.0 mi West 6.9 mph - N/A   Clear
1:35 PM 59.7 °F - 30.7 °F 33% 29.99 in 10.0 mi Calm Calm - N/A   Clear
1:55 PM 60.8 °F - 31.3 °F 33% 29.99 in 10.0 mi Calm Calm - N/A   Clear
2:15 PM 61.3 °F - 30.4 °F 31% 29.98 in 10.0 mi West 4.6 mph - N/A   Clear
2:35 PM 61.0 °F - 30.2 °F 31% 29.98 in 10.0 mi Calm Calm - N/A   Clear
2:55 PM 61.3 °F - 30.4 °F 31% 29.97 in 10.0 mi Calm Calm - N/A   Clear
3:15 PM 61.7 °F - 30.0 °F 30% 29.97 in 10.0 mi West 3.5 mph - N/A   Clear
3:35 PM 61.7 °F - 29.5 °F 30% 29.97 in 10.0 mi Calm Calm - N/A   Clear
3:55 PM 61.2 °F - 29.5 °F 30% 29.97 in 10.0 mi NW 3.5 mph - N/A   Clear
4:15 PM 61.2 °F - 30.0 °F 31% 29.97 in 10.0 mi Calm Calm - N/A   Clear
4:35 PM 59.2 °F - 30.7 °F 34% 29.97 in 10.0 mi Calm Calm - N/A   Clear
4:55 PM 56.5 °F - 30.4 °F 37% 29.97 in 10.0 mi Calm Calm - N/A   Clear
5:15 PM 52.9 °F - 30.7 °F 43% 29.97 in 10.0 mi Calm Calm - N/A   Clear
5:35 PM 49.6 °F - 30.9 °F 49% 29.97 in 10.0 mi Calm Calm - N/A   Clear
5:55 PM 48.0 °F - 30.9 °F 52% 29.97 in 10.0 mi Calm Calm - N/A   Clear
6:15 PM 48.2 °F - 31.1 °F 52% 29.97 in 10.0 mi Calm Calm - N/A   Clear
6:35 PM 46.8 °F - 30.9 °F 54% 29.97 in 10.0 mi Calm Calm - N/A   Clear
6:55 PM 45.7 °F - 31.1 °F 57% 29.97 in 10.0 mi Calm Calm - N/A   Clear
7:15 PM 45.9 °F - 31.1 °F 56% 29.97 in 10.0 mi Calm Calm - N/A   Clear
7:35 PM 44.1 °F 42.5 °F 30.9 °F 60% 29.97 in 10.0 mi NW 3.5 mph - N/A   Clear
7:55 PM 41.7 °F 36.7 °F 30.9 °F 66% 29.97 in 10.0 mi West 8.1 mph - N/A   Clear
8:15 PM 39.7 °F 37.6 °F 30.7 °F 70% 29.95 in 10.0 mi WSW 3.5 mph - N/A   Clear
8:35 PM 39.2 °F 35.9 °F 31.3 °F 73% 29.95 in 10.0 mi West 4.6 mph - N/A   Clear
8:55 PM 40.5 °F 36.5 °F 31.3 °F 70% 29.95 in 10.0 mi West 5.8 mph - N/A   Clear
9:15 PM 39.0 °F 34.0 °F 31.3 °F 74% 29.96 in 10.0 mi WNW 6.9 mph - N/A   Clear
9:35 PM 40.1 °F 34.7 °F 31.3 °F 71% 29.96 in 10.0 mi WNW 8.1 mph - N/A   Clear
9:55 PM 37.4 °F 34.9 °F 31.1 °F 78% 29.96 in 10.0 mi West 3.5 mph - N/A   Clear
10:15 PM 36.3 °F - 30.7 °F 80% 29.95 in 10.0 mi Calm Calm - N/A   Clear
10:35 PM 37.0 °F 32.4 °F 31.3 °F 80% 29.94 in 10.0 mi WSW 5.8 mph - N/A   Clear
10:55 PM 38.7 °F 35.2 °F 31.8 °F 76% 29.94 in 10.0 mi West 4.6 mph - N/A   Clear
11:15 PM 39.0 °F 35.7 °F 32.0 °F 76% 29.94 in 10.0 mi WNW 4.6 mph - N/A   Clear
11:35 PM 39.2 °F 35.9 °F 32.4 °F 76% 29.94 in 10.0 mi WNW 4.6 mph - N/A   Mostly Cloudy
11:55 PM 41.0 °F 39.0 °F 32.9 °F 73% 29.93 in 10.0 mi West 3.5 mph - N/A   Overcast